Waukesha, WI

6:16 AM CDT on June 21, 2018 (GMT -0500)
Waukesha County

Weather History for KUES - September, 2017

Change the Weather History Date:

Wednesday, September 13, 2017

  Actual Average Record
Temperature  
Mean Temperature 62 °F -  
Max Temperature 75 °F 74 °F 91 °F (1998)
Min Temperature 50 °F 54 °F 37 °F (1953)
Degree Days  
Heating Degree Days 2    
Growing Degree Days 12 (Base 50)    
Moisture  
Dew Point 52 °F    
Average Humidity 85    
Maximum Humidity 100    
Minimum Humidity 38    
Precipitation  
Precipitation 0.00 in - - ()
Sea Level Pressure  
Sea Level Pressure 29.83 in    
Wind  
Wind Speed 2 mph (ESE)    
Max Wind Speed 9 mph    
Max Gust Speed -    
Visibility 8 miles    
Events Fog    
Averages and records for this station are not official NWS values.
T = Trace of Precipitation, MM = Missing Value Source: NWS Daily Summary

Daily Weather History Graph

Daily Weather History Graph

Search for Another Location

Airport or City:

Astronomy

Sep. 13, 2017 Rise Set
Actual Time 6:30 AM CDT 7:06 PM CDT
Civil Twilight 6:02 AM CDT 7:34 PM CDT
Nautical Twilight 5:28 AM CDT 8:08 PM CDT
Astronomical Twilight 4:53 AM CDT 8:43 PM CDT
Moon No Moon Rise 2:28 PM CDT (9/13)
Length of Visible Light 13h 32m
Length of Day
12h 35m
Last Quarter, 45% of the Moon is Illuminated
Sep 13
Last Quarter
Sep 20
New
Sep 27
First Quarter
Oct 5
Full
Oct 12
Last Quarter

Hourly Weather History & Observations

Time (CDT) Temp. Dew Point Humidity Pressure Visibility Wind Dir Wind Speed Gust Speed Precip Events Conditions
12:15 AM 51.8 °F 50.0 °F 94% 29.87 in 10.0 mi Calm Calm - N/A   Clear
12:35 AM 51.8 °F 50.0 °F 94% 29.87 in 10.0 mi Calm Calm - N/A   Clear
12:55 AM 51.8 °F 50.0 °F 94% 29.87 in 10.0 mi Calm Calm - N/A   Clear
1:15 AM 51.8 °F 50.0 °F 94% 29.86 in 10.0 mi Calm Calm - N/A   Clear
1:35 AM 50.0 °F 50.0 °F 100% 29.86 in 10.0 mi Calm Calm - N/A   Clear
1:55 AM 50.0 °F 50.0 °F 100% 29.86 in 10.0 mi Calm Calm - N/A   Clear
2:15 AM 50.0 °F 50.0 °F 100% 29.86 in 10.0 mi Calm Calm - N/A   Clear
2:35 AM 50.0 °F 50.0 °F 100% 29.86 in 10.0 mi Calm Calm - N/A   Clear
2:55 AM 50.0 °F 48.2 °F 94% 29.85 in 10.0 mi Calm Calm - N/A   Clear
3:15 AM 50.0 °F 50.0 °F 100% 29.85 in 10.0 mi Calm Calm - N/A   Clear
3:35 AM 50.0 °F 48.2 °F 94% 29.85 in 10.0 mi Calm Calm - N/A   Clear
3:55 AM 50.0 °F 50.0 °F 100% 29.84 in 10.0 mi Calm Calm - N/A   Clear
4:15 AM 50.0 °F 48.2 °F 94% 29.84 in 10.0 mi WNW 3.5 mph - N/A   Clear
4:35 AM 50.0 °F 50.0 °F 100% 29.84 in 10.0 mi Calm Calm - N/A   Clear
4:55 AM 50.0 °F 50.0 °F 100% 29.84 in 7.0 mi Calm Calm - N/A   Clear
5:15 AM 50.0 °F 50.0 °F 100% 29.84 in 10.0 mi Calm Calm - N/A   Scattered Clouds
5:35 AM 50.0 °F 48.2 °F 94% 29.84 in 7.0 mi Calm Calm - N/A   Mostly Cloudy
5:45 AM 50.0 °F 50.0 °F 100% 29.84 in 2.5 mi Calm Calm - N/A   Mostly Cloudy
6:45 AM 51.8 °F 51.8 °F 100% 29.83 in 7.0 mi Calm Calm - N/A   Clear
7:45 AM 53.6 °F 53.6 °F 100% 29.84 in 1.0 mi Calm Calm - N/A   Clear
8:25 AM 57.2 °F 57.2 °F 100% 29.84 in 2.0 mi Calm Calm - N/A   Mostly Cloudy
8:45 AM 59.0 °F 57.2 °F 94% 29.84 in 0.1 mi East 3.5 mph - N/A Fog Fog
9:20 AM 59.0 °F 59.0 °F 100% 29.84 in 0.8 mi East 3.5 mph - N/A   Mostly Cloudy
9:45 AM 60.8 °F 60.8 °F 100% 29.83 in 7.0 mi East 3.5 mph - N/A   Clear
10:45 AM 69.8 °F 57.2 °F 64% 29.81 in 10.0 mi ENE 6.9 mph - N/A   Clear
11:45 AM 73.4 °F 55.4 °F 53% 29.80 in 10.0 mi East 9.2 mph - N/A   Clear
12:45 PM 75.2 °F 53.6 °F 47% 29.79 in 10.0 mi East 6.9 mph - N/A   Clear
1:45 PM 75.2 °F 48.2 °F 38% 29.78 in 10.0 mi East 9.2 mph - N/A   Clear
2:45 PM 75.2 °F 53.6 °F 47% 29.77 in 10.0 mi East 6.9 mph - N/A   Clear
3:45 PM 73.4 °F 46.4 °F 38% 29.77 in 10.0 mi East 8.1 mph - N/A   Clear
4:45 PM 73.4 °F 51.8 °F 47% 29.77 in 10.0 mi East 5.8 mph - N/A   Clear
5:45 PM 71.6 °F 48.2 °F 43% 29.77 in 10.0 mi East 5.8 mph - N/A   Clear
6:45 PM 66.2 °F 46.4 °F 49% 29.78 in 10.0 mi ESE 5.8 mph - N/A   Clear
7:45 PM 60.8 °F 51.8 °F 72% 29.78 in 10.0 mi SE 3.5 mph - N/A   Clear
8:45 PM 60.8 °F 53.6 °F 77% 29.80 in 10.0 mi SE 3.5 mph - N/A   Clear
10:15 PM 59.0 °F 55.4 °F 88% 29.81 in 10.0 mi SSE 4.6 mph - N/A   Clear
10:35 PM 59.0 °F 57.2 °F 94% 29.81 in 10.0 mi South 5.8 mph - N/A   Clear
10:50 PM 59.0 °F 57.2 °F 94% 29.81 in 7.0 mi South 5.8 mph - N/A   Clear
11:15 PM 59.0 °F 59.0 °F 100% 29.81 in 3.0 mi South 6.9 mph - N/A   Mostly Cloudy
11:35 PM 59.0 °F 59.0 °F 100% 29.81 in 0.2 mi South 4.6 mph - N/A Fog Fog
11:55 PM 59.0 °F 59.0 °F 100% 29.82 in 0.2 mi Calm Calm - N/A Fog Fog